This is the latest recevied weather packets stored in our database for station/object DJ4CK-1. If no packets are shown the sender has not sent any weather packets the latest 1 day(s).
| Time | Temp. | Humidity | Pressure | Rain* | Wind** | Luminosity | Snow |
|---|---|---|---|---|---|---|---|
| 1778065263 | 18.89° C | 52% | 1006.8 hPa | 0 mm | - | - | - |
| 1778065143 | 18.89° C | 51% | 1006.8 hPa | 0 mm | - | - | - |
| 1778064844 | 18.89° C | 52% | 1006.8 hPa | 0 mm | - | - | - |
| 1778064784 | 18.33° C | 52% | 1006.8 hPa | 0 mm | - | - | - |
| 1778064724 | 18.33° C | 50% | 1006.8 hPa | 0 mm | - | - | - |
| 1778064663 | 18.33° C | 51% | 1006.8 hPa | 0 mm | - | - | - |
| 1778064424 | 17.78° C | 53% | 1006.9 hPa | 0 mm | - | - | - |
| 1778064364 | 17.78° C | 53% | 1006.9 hPa | 0 mm | - | - | - |
| 1778064064 | 17.78° C | 55% | 1007 hPa | 0 mm | - | - | - |
| 1778064004 | 17.78° C | 55% | 1007 hPa | 0 mm | - | - | - |
| 1778063943 | 17.22° C | 55% | 1007 hPa | 0 mm | - | - | - |
| 1778063764 | 17.22° C | 56% | 1007 hPa | 0 mm | - | - | - |
| 1778063704 | 17.22° C | 56% | 1007 hPa | 0 mm | - | - | - |
| 1778063643 | 17.22° C | 56% | 1007.1 hPa | 0 mm | - | - | - |
| 1778063464 | 17.22° C | 55% | 1007.1 hPa | 0 mm | - | - | - |
| 1778063404 | 17.22° C | 55% | 1007.1 hPa | 0 mm | - | - | - |
| 1778063284 | 17.78° C | 53% | 1007.1 hPa | 0 mm | - | - | - |
| 1778063224 | 18.33° C | 52% | 1007.1 hPa | 0 mm | - | - | - |
| 1778063164 | 18.33° C | 49% | 1007.1 hPa | 0 mm | - | - | - |
| 1778063044 | 18.89° C | 49% | 1007.1 hPa | 0 mm | - | - | - |
| 1778062984 | 18.33° C | 49% | 1007.1 hPa | 0 mm | - | - | - |
| 1778062923 | 18.33° C | 49% | 1007.1 hPa | 0 mm | - | - | - |
| 1778062684 | 18.33° C | 48% | 1007.2 hPa | 0 mm | - | - | - |
| 1778062624 | 18.33° C | 49% | 1007.2 hPa | 0 mm | - | - | - |
| 1778062024 | 19.44° C | 47% | 1007.2 hPa | 0 mm | - | - | - |
* Rain latest hour (hover to see other rain measurements)
** Current wind speed in m/s (hover to see current wind gust speed)